Location: Central Falls
(41.8900°N, 71.3929°W)
Time: 14:57:40
(UTC+00:00)

Tiros 1 despin weight - Visible Passes

Search period start: 03 December 2023 00:00
Search period end: 13 December 2023 00:00
Orbit: 583 x 628 km, 48.2° (Epoch: 28 November)

Date Brightness Start Highest point End Pass type
(mag) Time Alt. Az. Time Alt. Az. Time Alt. Az.
03 Dec ? 21:49:50 10° S 21:52:41 17° SE 21:55:31 10° E visible
03 Dec ? 23:29:05 10° WSW 23:32:55 68° SW 23:32:55 68° SW visible
04 Dec ? 22:00:54 10° SSW 22:04:43 30° SE 22:08:04 12° E visible
04 Dec ? 23:41:25 10° WSW 23:44:51 51° W 23:44:51 51° W visible
05 Dec ? 22:12:36 10° SW 22:16:51 53° SE 22:19:57 17° ENE visible
05 Dec ? 23:53:57 10° W 23:56:44 34° WNW 23:56:44 34° WNW visible
06 Dec ? 22:24:41 10° WSW 22:29:04 87° SSE 22:31:46 23° ENE visible
07 Dec ? 00:06:32 10° W 00:08:33 24° WNW 00:08:33 24° WNW visible
07 Dec ? 22:37:02 10° WSW 22:41:22 63° NNW 22:43:33 28° NE visible
08 Dec ? 00:19:06 10° WNW 00:20:20 17° WNW 00:20:20 17° WNW visible
08 Dec ? 22:49:31 10° W 22:53:45 46° NNW 22:55:17 32° NE visible
09 Dec ? 00:31:35 10° WNW 00:32:04 13° WNW 00:32:04 13° WNW visible
09 Dec ? 23:02:05 10° WNW 23:06:11 38° N 23:07:00 34° NNE visible
10 Dec ? 23:14:37 10° WNW 23:18:38 35° N 23:18:42 35° N visible
11 Dec ? 21:45:01 10° W 21:49:13 45° NNW 21:53:25 10° ENE visible
11 Dec ? 23:27:03 10° WNW 23:30:25 34° NNW 23:30:25 34° NNW visible
12 Dec ? 21:57:32 10° WNW 22:01:38 37° N 22:05:21 12° ENE visible
12 Dec ? 23:39:22 10° WNW 23:42:08 32° NNW 23:42:08 32° NNW visible
